Temperature
15 15 15 15 15 16 16 15 15 16 16 16 16 16 16 16 16 15 15 15 15 15 15 15 15 15 15 15 15 15 15 15 15 14 14 14 14 14 14 14 14 14 14
15 15 15 15 15 15 15 15 15 15 16 16 15 15 16 16 15 15 15 15 15 15 15 15 15 15 15 15 15 15 15 15 14 14 14 14 14 14 14 14 14 14 14
15 15 15 15 15 15 15 15 15 15 15 15 15 15 15 15 15 15 15 15 15 15 15 15 15 15 15 15 15 15 14 14 14 14 14 14 14 14 14 14 14 14 14
14 14 14 14 15 15 15 15 15 15 15 15 15 15 15 15 15 15 15 15 15 15 15 15 15 15 15 15 14 14 14 14 14 14 14 14 14 13 13 13 13 13 13
14 14 14 14 14 14 15 15 15 15 15 15 15 15 15 15 15 15 15 15 15 15 15 14 14 14 14 14 14 14 14 14 14 14 14 13 13 13 13 13 13 13 13
14 14 14 14 14 14 14 15 15 15 15 15 15 15 15 15 15 15 15 15 15 15 14 14 14 14 14 14 14 14 14 14 14 14 13 13 13 13 13 13 13 13 13
14 14 14 14 14 14 14 14 14 14 14 14 15 15 15 15 15 15 15 15 15 14 14 14 14 14 14 14 14 14 14 14 14 13 13 13 13 13 13 12 12 12 12
13 13 13 13 13 14 14 14 14 14 14 14 14 14 14 14 14 15 15 14 14 14 14 14 14 14 14 14 14 14 14 13 13 13 13 13 12 12 12 12 12 12 12
13 13 13 13 13 13 13 13 14 14 14 14 14 14 14 14 14 14 14 14 14 14 14 14 14 14 14 14 13 13 13 13 13 13 13 13 12 12 12 12 12 12 12
12 13 13 13 13 13 13 13 13 13 13 13 13 14 14 14 14 14 14 14 14 14 14 14 14 13 13 13 13 13 13 13 13 13 12 12 12 12 12 12 11 11 11
12 12 12 12 12 12 13 13 13 13 13 13 13 13 13 13 13 13 13 13 13 13 13 13 13 13 13 13 13 13 13 13 12 12 12 12 12 11 11 11 11 11 11
12 12 12 12 12 12 12 12 12 12 13 13 13 13 13 13 13 13 13 13 13 13 13 13 13 13 13 13 13 13 13 12 12 12 12 12 11 11 11 11 11 11 11
11 11 11 11 12 12 12 12 12 12 12 12 12 12 12 12 12 12 13 13 13 13 13 13 13 13 12 12 12 12 12 12 12 12 12 11 11 11 11 11 11 11 11
11 11 11 11 11 11 11 11 11 12 12 12 12 12 12 12 12 12 12 12 12 12 12 12 12 12 12 12 12 12 12 12 12 11 11 11 11 11 11 11 10 10 10
10 10 10 11 11 11 11 11 11 11 11 11 11 11 12 12 12 12 12 12 12 12 12 12 12 12 12 12 11 11 11 11 11 11 11 11 11 11 10 10 10 10 10
10 10 10 10 10 10 10 10 10 10 10 11 11 11 11 11 12 12 12 12 12 12 12 12 12 11 11 11 11 11 11 11 11 11 11 10 10 10 10 10 10 10 10
9 10 10 10 10 10 10 10 10 10 10 10 11 11 11 11 11 11 11 11 11 11 11 11 11 11 11 11 11 11 11 10 10 10 10 10 10 10 10 10 10 9 9
9 9 9 9 9 9 9 9 9 9 10 10 10 10 10 10 10 10 11 11 11 11 11 11 11 11 10 10 10 10 10 10 10 10 10 10 10 10 10 9 9 9 9
8 8 9 9 9 9 9 9 9 9 9 9 9 9 10 10 10 10 10 10 10 10 10 10 10 10 10 10 10 10 10 10 10 10 10 10 9 9 9 9 9 9 9
8 8 8 8 8 8 8 8 8 8 8 9 9 9 9 9 9 9 9 9 9 9 9 9 9 9 9 9 9 9 9 9 9 9 9 9 9 9 9 9 9 9 8
7 7 7 7 7 8 8 8 8 8 8 8 8 8 8 8 9 9 9 9 9 9 9 9 9 9 9 9 9 9 9 9 9 9 9 9 9 8 8 8 8 8 8
6 7 7 7 7 7 7 7 7 7 7 7 7 7 7 8 8 8 8 8 8 8 8 8 8 8 8 8 8 8 7 8 8 8 8 8 8 8 8 8 8 8 7
6 6 6 6 6 6 7 7 7 7 7 7 7 7 7 7 7 7 7 7 8 7 7 7 8 8 7 7 7 7 7 7 7 7 8 8 8 7 7 7 7 7 7
5 5 5 6 6 6 6 6 6 6 6 6 6 6 6 6 6 6 7 7 7 7 7 7 7 7 7 7 7 6 6 6 6 7 7 7 7 7 7 7 7 7 7
4 5 5 5 5 5 6 6 6 6 5 5 5 5 6 6 6 6 6 6 6 6 6 6 6 6 6 6 6 6 6 6 6 6 6 6 7 7 6 6 6 6 6
4 4 4 5 5 5 5 5 5 5 5 5 5 5 5 5 5 5 5 5 5 5 5 6 5 6 6 6 6 5 5 5 5 5 5 5 6 6 6 6 6 6 6
Wind_Speed
2 3 2 4 6 8 9 10 10 10 11 11 11 11 12 12 12 12 12 12 12 12 11 12 12 12 12 13 13 12 12 13 13 13 12 13 14 14 13 13 12 11 13
2 3 3 5 7 8 9 9 9 10 10 11 11 11 12 12 12 12 12 11 11 11 12 12 12 12 12 12 12 12 12 12 12 12 12 11 12 12 12 12 11 11 12
2 0 3 5 7 8 8 9 9 10 10 10 11 10 11 12 11 11 12 11 11 11 11 11 11 12 12 11 11 11 12 12 11 11 10 9 9 10 11 10 11 11 12
2 2 2 4 6 7 8 8 9 9 10 10 10 10 11 11 11 11 11 11 11 11 11 11 11 12 12 12 11 11 11 12 11 10 9 8 7 9 10 10 10 10 10
4 4 3 4 5 7 7 7 8 8 9 9 10 10 10 10 10 10 10 10 10 10 10 11 11 11 11 11 11 11 11 11 11 10 9 8 6 8 9 9 9 9 9
5 5 4 4 5 5 6 7 7 7 8 9 9 9 10 10 10 9 9 9 9 10 10 10 11 11 11 11 11 11 11 11 10 9 8 6 5 7 8 8 8 8 8
4 5 5 6 5 5 5 5 6 7 7 7 8 9 9 9 9 9 9 9 9 9 9 10 10 11 11 11 11 11 10 10 9 8 6 5 5 6 7 7 7 7 6
4 5 5 4 5 5 5 6 5 5 6 7 7 8 8 8 8 8 8 8 9 9 9 9 9 10 10 10 10 10 10 9 8 6 5 4 5 6 6 6 6 6 6
6 6 6 5 3 4 3 5 5 5 5 6 6 7 8 8 8 8 7 7 8 8 8 8 9 9 9 9 10 10 10 9 8 5 4 3 4 5 5 5 5 5 5
6 6 6 6 5 3 3 3 4 4 4 5 5 6 7 7 7 7 7 7 7 7 8 8 8 9 8 9 9 9 9 8 6 5 3 2 4 5 4 4 4 4 4
5 5 5 5 5 4 3 3 3 3 3 5 4 5 5 5 5 5 6 6 6 7 7 8 8 8 8 8 8 8 8 6 5 4 3 2 3 4 4 4 4 3 3
4 4 4 4 4 4 3 3 3 3 3 4 4 4 4 4 5 5 5 5 6 6 7 7 8 8 7 7 7 7 6 5 4 2 2 1 2 2 3 2 2 2 2
2 3 4 4 3 3 3 3 3 3 3 3 3 4 4 4 4 4 4 3 4 5 5 5 6 5 6 5 5 5 5 4 3 1 1 1 1 1 1 2 1 1 1
2 3 3 3 3 3 3 2 2 2 2 2 3 3 4 3 2 2 3 3 3 3 4 4 4 4 5 5 5 4 4 3 2 1 1 1 1 1 1 1 1 1 1
2 3 3 2 2 2 3 2 2 2 2 2 3 3 3 2 2 2 2 2 2 3 3 3 3 3 3 3 3 3 3 2 1 1 1 2 2 2 2 2 2 2 1
2 3 2 2 1 2 2 2 2 2 2 2 3 2 3 2 2 2 2 2 2 2 3 3 3 3 2 2 2 2 2 1 1 1 1 1 2 2 2 2 2 2 2
2 3 2 1 2 2 2 2 2 2 3 2 2 2 3 2 2 2 2 2 2 3 3 3 3 3 2 2 1 1 1 1 1 1 1 1 2 2 2 2 2 3 3
2 2 2 2 2 2 2 2 2 3 2 2 2 3 3 3 3 3 1 1 2 3 3 3 3 2 2 1 1 1 1 1 1 1 1 1 1 2 2 3 3 3 4
2 1 2 2 2 2 2 2 2 3 3 2 3 2 2 2 3 3 2 1 2 3 3 3 2 2 2 1 1 1 1 0 0 1 1 1 1 1 2 3 4 4 5
2 2 2 2 2 2 2 2 2 2 2 3 2 2 2 1 2 2 2 2 2 3 2 3 3 2 2 2 1 1 0 0 1 0 0 1 1 1 1 2 3 4 5
4 3 3 3 3 2 2 1 1 1 1 2 2 3 2 1 1 1 1 1 2 2 2 3 3 3 2 2 2 1 1 1 0 0 0 0 1 1 1 2 2 2 4
3 3 3 2 2 2 1 0 0 0 0 1 2 3 3 2 1 1 1 1 1 2 2 3 3 3 2 2 2 1 1 2 1 1 1 1 1 1 1 2 2 2 3
3 3 2 3 2 2 2 1 2 1 1 1 1 2 3 2 1 1 0 1 1 2 3 3 3 3 3 2 1 2 2 2 2 1 1 1 1 1 1 1 2 2 3
3 3 3 3 3 2 2 2 1 0 1 1 1 1 3 2 1 1 1 1 1 1 2 2 3 3 3 3 2 1 1 2 1 2 2 1 1 2 2 2 2 2 3
3 3 3 3 3 3 2 1 1 1 1 1 1 1 1 2 1 1 1 1 1 1 1 2 2 3 3 3 3 2 1 0 1 2 3 2 2 2 2 2 2 2 3
3 3 3 3 3 2 2 1 1 1 1 1 1 1 1 1 1 1 1 0 0 1 2 2 2 3 3 3 2 2 2 2 2 2 3 3 3 3 3 3 3 3 3
Wind_Direction
302 291 199 128 119 113 114 116 116 117 120 122 122 123 123 122 120 118 117 117 116 113 113 114 112 111 109 107 105 105 104 100 97 95 96 97 97 95 92 90 87 85 87
277 260 179 135 124 119 117 117 115 113 115 119 123 122 121 122 121 121 118 118 119 116 112 111 111 112 111 110 109 108 105 101 98 96 93 92 95 96 95 94 94 94 90
359 348 148 137 130 128 122 117 116 113 114 115 117 120 120 121 121 119 116 114 115 115 114 112 110 110 109 109 110 110 108 104 99 95 88 83 90 98 98 97 95 92 88
32 63 108 132 136 133 129 124 120 119 115 115 115 114 116 117 118 116 113 111 112 115 113 110 109 110 110 109 107 108 108 106 102 93 84 80 84 97 102 97 94 91 90
45 56 88 105 132 136 131 127 123 125 121 120 121 121 118 118 118 117 114 113 113 114 113 111 110 111 110 108 108 106 106 106 102 91 84 82 82 98 102 102 97 94 91
41 44 54 97 104 124 134 131 126 124 125 123 125 125 126 122 121 122 119 117 116 115 115 111 110 112 111 109 110 109 107 102 99 94 87 84 85 99 105 105 102 97 94
40 40 51 72 87 99 120 133 133 133 132 130 130 130 129 128 122 124 126 124 119 115 116 116 112 111 113 113 110 106 109 108 100 94 88 88 100 105 106 108 107 103 100
40 32 39 66 72 83 114 119 127 134 139 135 136 138 135 133 130 124 123 126 125 120 120 121 121 115 113 113 111 106 104 107 103 95 93 97 114 115 112 106 105 103 96
41 33 29 37 57 68 94 121 117 124 130 138 138 141 138 135 135 134 126 127 127 124 125 127 122 119 114 115 113 110 107 102 101 97 95 104 121 121 118 114 115 112 109
39 30 20 25 36 50 71 111 117 117 126 129 130 137 139 138 138 138 129 124 126 127 128 128 121 116 115 115 114 112 108 99 96 94 85 103 123 122 116 112 111 117 115
27 22 19 21 27 33 50 90 101 98 110 121 112 123 135 132 131 130 126 127 128 130 130 129 123 117 112 111 111 110 106 98 96 88 83 98 125 128 119 114 112 113 113
1 360 14 20 26 35 49 66 73 76 80 99 100 102 110 122 127 128 128 131 132 131 128 126 125 116 105 100 102 104 102 100 97 88 78 86 128 139 138 139 130 122 125
334 349 356 6 30 48 50 66 69 67 71 79 91 101 105 103 115 115 112 113 119 122 112 111 107 100 98 98 95 95 99 103 99 82 67 83 136 166 174 170 181 171 160
348 336 350 9 39 50 61 74 77 74 76 75 78 101 106 104 99 111 104 101 106 113 101 98 93 96 96 99 104 97 92 98 95 69 36 56 57 298 259 245 228 227 223
345 340 348 13 33 49 64 67 72 74 85 85 77 82 103 124 132 125 121 106 111 118 115 106 103 102 99 93 100 102 93 85 95 83 27 24 10 342 320 300 271 235 250
329 327 334 10 26 56 68 69 61 69 68 78 78 74 92 106 135 141 142 139 128 133 135 129 128 131 129 111 102 98 104 99 103 88 44 10 3 360 346 331 317 313 312
313 324 330 356 34 64 64 53 55 59 63 64 66 69 82 95 103 126 145 162 157 146 134 121 110 110 118 110 111 108 104 90 91 85 47 33 16 7 4 354 338 333 332
335 335 335 6 34 38 53 55 49 59 61 57 56 63 63 78 96 99 117 155 140 134 132 138 131 126 129 136 145 136 100 85 73 78 68 49 36 14 358 354 335 326 326
344 7 7 18 30 21 34 44 51 54 54 50 49 51 49 64 85 95 100 93 114 123 133 144 140 145 151 157 172 137 107 130 57 84 77 68 49 18 14 355 350 344 332
359 23 37 35 26 32 39 41 43 42 32 34 28 25 33 50 79 97 100 85 103 132 143 148 147 137 152 158 141 95 48 47 61 66 157 87 52 357 8 354 346 335 333
14 18 28 40 21 37 41 36 23 354 3 21 13 17 5 27 66 99 90 110 118 142 159 162 156 145 133 115 101 45 353 34 51 288 202 101 36 334 340 330 327 330 331
9 10 13 18 17 17 14 35 249 300 0 3 11 9 354 14 32 136 118 154 143 139 139 153 155 155 136 124 127 125 320 325 311 276 260 232 267 320 316 302 300 308 317
359 357 352 355 359 0 7 39 47 50 24 23 5 353 346 5 32 54 114 144 156 157 174 179 168 155 169 175 139 141 154 227 287 284 253 241 267 257 281 294 283 289 303
337 348 4 2 360 0 15 37 57 73 266 278 302 330 345 355 17 64 94 123 163 172 179 191 182 171 173 182 186 193 171 160 183 282 284 268 274 267 271 295 288 278 295
339 350 359 8 1 358 11 23 27 338 290 314 343 2 352 343 349 35 75 90 143 179 203 193 204 186 185 188 185 175 181 174 173 212 268 284 291 266 264 265 262 267 277
356 360 1 13 356 353 8 25 41 329 313 352 347 324 329 347 324 352 39 61 192 195 210 212 219 209 199 192 198 190 181 181 197 201 241 266 277 273 266 255 247 248 259
Height
1499 1500 1501 1502 1504 1505 1505 1507 1508 1508 1509 1510 1511 1513 1514 1515 1516 1517 1518 1519 1520 1521 1521 1522 1523 1523 1524 1524 1525 1526 1526 1527 1528 1528 1529 1530 1530 1531 1531 1531 1532 1532 1533
1498 1500 1501 1503 1504 1505 1506 1507 1508 1508 1509 1510 1511 1513 1514 1515 1516 1517 1518 1519 1520 1521 1522 1522 1523 1524 1525 1525 1526 1526 1527 1528 1528 1529 1530 1530 1531 1532 1532 1532 1533 1533 1534
1498 1499 1501 1503 1504 1505 1506 1507 1508 1509 1509 1511 1512 1513 1514 1515 1516 1517 1518 1519 1520 1521 1522 1523 1524 1524 1525 1526 1527 1527 1528 1528 1529 1530 1530 1531 1532 1532 1533 1533 1534 1534 1534
1498 1499 1501 1502 1504 1505 1506 1507 1508 1509 1510 1511 1512 1513 1514 1515 1516 1517 1518 1519 1520 1521 1522 1523 1524 1525 1525 1526 1527 1528 1528 1529 1529 1530 1531 1532 1532 1533 1533 1534 1534 1534 1535
1498 1499 1501 1502 1504 1505 1506 1507 1508 1509 1510 1511 1512 1513 1514 1515 1516 1517 1518 1520 1520 1521 1522 1523 1524 1525 1526 1527 1527 1528 1529 1529 1530 1530 1531 1532 1533 1533 1534 1534 1535 1535 1535
1498 1499 1500 1502 1503 1504 1505 1506 1508 1509 1510 1511 1512 1513 1514 1515 1516 1517 1518 1519 1520 1521 1522 1523 1524 1525 1526 1526 1527 1528 1529 1529 1530 1531 1531 1532 1533 1534 1534 1534 1535 1535 1535
1498 1499 1500 1501 1502 1503 1504 1506 1507 1508 1509 1511 1512 1513 1514 1515 1516 1517 1518 1519 1520 1521 1522 1523 1524 1525 1526 1526 1527 1528 1528 1529 1530 1531 1531 1532 1533 1534 1534 1534 1534 1535 1535
1497 1498 1499 1500 1501 1502 1503 1504 1506 1507 1508 1509 1511 1512 1513 1514 1515 1516 1517 1518 1519 1520 1522 1523 1524 1524 1525 1526 1527 1528 1528 1529 1530 1531 1531 1532 1533 1533 1534 1534 1534 1534 1534
1497 1498 1498 1499 1500 1501 1502 1503 1505 1506 1507 1508 1509 1511 1512 1513 1514 1515 1516 1517 1518 1519 1521 1522 1523 1524 1525 1526 1527 1527 1528 1529 1530 1531 1531 1532 1533 1533 1533 1534 1534 1534 1534
1496 1497 1497 1498 1499 1500 1501 1502 1503 1505 1506 1507 1508 1509 1511 1512 1513 1514 1516 1517 1518 1519 1520 1521 1522 1523 1524 1525 1526 1527 1528 1529 1529 1530 1531 1532 1532 1533 1533 1533 1533 1533 1533
1495 1496 1496 1496 1497 1498 1499 1500 1502 1503 1504 1505 1506 1508 1509 1511 1512 1513 1514 1515 1517 1518 1519 1520 1521 1522 1523 1524 1525 1526 1527 1528 1529 1530 1530 1531 1532 1532 1532 1532 1533 1532 1533
1493 1494 1494 1495 1495 1496 1497 1498 1500 1501 1503 1504 1505 1506 1507 1509 1510 1511 1513 1514 1515 1516 1517 1518 1519 1521 1522 1523 1524 1525 1526 1527 1528 1529 1530 1530 1531 1531 1531 1531 1532 1532 1531
1492 1492 1493 1493 1493 1494 1495 1496 1498 1499 1500 1502 1503 1504 1505 1507 1508 1509 1511 1512 1513 1515 1516 1517 1518 1519 1520 1522 1523 1524 1525 1525 1527 1527 1528 1529 1529 1530 1530 1530 1530 1530 1530
1491 1491 1491 1491 1491 1492 1493 1494 1495 1497 1498 1500 1501 1502 1504 1505 1506 1507 1508 1510 1511 1512 1513 1515 1516 1517 1519 1520 1521 1522 1523 1524 1525 1526 1526 1527 1528 1528 1528 1529 1529 1529 1529
1490 1490 1490 1490 1490 1491 1491 1492 1493 1494 1496 1497 1499 1500 1501 1502 1504 1505 1506 1508 1509 1510 1511 1513 1514 1515 1517 1518 1519 1520 1521 1522 1523 1524 1524 1525 1526 1526 1526 1527 1527 1527 1527
1488 1488 1489 1489 1489 1490 1490 1491 1491 1492 1494 1495 1496 1497 1499 1500 1501 1503 1504 1505 1507 1508 1509 1510 1512 1513 1514 1515 1517 1518 1519 1520 1521 1521 1522 1523 1523 1524 1524 1525 1525 1525 1525
1486 1487 1487 1487 1487 1487 1488 1489 1489 1490 1491 1492 1493 1495 1496 1498 1499 1500 1501 1502 1504 1506 1507 1508 1509 1510 1512 1513 1514 1515 1516 1517 1518 1519 1520 1520 1521 1521 1522 1522 1522 1522 1522
1484 1484 1485 1485 1485 1485 1486 1486 1487 1488 1489 1490 1491 1492 1494 1495 1496 1497 1499 1500 1501 1503 1504 1505 1506 1508 1509 1510 1511 1512 1513 1514 1515 1516 1517 1517 1518 1518 1519 1519 1520 1520 1520
1482 1482 1482 1483 1483 1483 1484 1484 1485 1486 1487 1488 1488 1489 1491 1492 1493 1494 1496 1497 1499 1500 1501 1502 1503 1505 1506 1507 1508 1509 1510 1512 1512 1513 1514 1514 1515 1515 1516 1516 1516 1516 1517
1480 1480 1480 1480 1481 1481 1482 1482 1483 1484 1484 1485 1485 1486 1488 1489 1490 1492 1493 1494 1495 1497 1498 1499 1501 1502 1504 1505 1506 1507 1508 1509 1509 1510 1511 1512 1512 1512 1513 1513 1513 1513 1513
1478 1478 1478 1478 1478 1478 1479 1479 1480 1480 1481 1482 1483 1483 1485 1485 1487 1488 1489 1491 1492 1493 1495 1496 1497 1499 1500 1502 1503 1504 1505 1505 1506 1507 1508 1508 1509 1509 1509 1510 1510 1510 1510
1476 1476 1476 1476 1476 1477 1477 1477 1477 1478 1478 1479 1480 1481 1482 1482 1483 1484 1486 1487 1488 1490 1491 1493 1494 1495 1497 1498 1500 1500 1501 1503 1503 1504 1504 1505 1505 1506 1506 1506 1506 1506 1506
1474 1474 1474 1474 1474 1474 1474 1475 1475 1475 1476 1476 1477 1477 1478 1478 1480 1481 1482 1484 1485 1486 1488 1489 1490 1491 1493 1495 1497 1498 1498 1498 1499 1500 1500 1501 1502 1502 1502 1503 1502 1502 1502
1473 1473 1472 1472 1472 1472 1472 1472 1471 1471 1472 1472 1473 1474 1475 1476 1477 1478 1479 1480 1481 1483 1484 1486 1487 1488 1490 1491 1493 1495 1496 1496 1497 1496 1496 1497 1498 1498 1499 1499 1499 1498 1498
1472 1471 1470 1470 1470 1470 1469 1469 1469 1469 1469 1470 1470 1471 1472 1472 1473 1474 1476 1477 1478 1479 1481 1482 1483 1485 1486 1487 1489 1490 1491 1492 1493 1493 1492 1492 1493 1494 1494 1495 1495 1494 1494
1470 1469 1469 1468 1468 1467 1467 1467 1466 1466 1467 1467 1467 1468 1468 1469 1470 1471 1472 1473 1474 1476 1477 1478 1480 1481 1482 1484 1485 1486 1487 1488 1489 1490 1489 1488 1488 1489 1489 1490 1490 1490 1489